Flag for Norfolk Island Weather past 2 weeks in Kingston, Norfolk Island

Now
72 °F

Scattered clouds.


Feels Like: 77 °F
Forecast: 66 / 71 °F
Wind: 15 mph from Southwest

Location: Norfolk Island Airport

Current Time: Apr 28, 2015 at 3:22:02 PM

Latest Report: Apr 28, 2015 at 2:30 PM


Visibility: N/A

Pressure: 30.01 "Hg

Humidity: 50%

Dew point: 52 °F

Location of KingstonLocation

Historic Weather in Kingston — Graph

°F

Kingston temperature yesterday

Maximum temperature yesterday: 75 °F (at 10:30 AM)
Minimum temperature yesterday: 70 °F (at 8:00 PM)
Average temperature yesterday: 72 °F

Past Weeks' High & Low Weather Summary

 TemperatureHumidityPressure
High75 °F (Apr 27, 10:30 AM)100% (Apr 26, 9:30 PM)30.30 "Hg (Apr 26, 9:30 PM)
Low61 °F (Apr 18, 5:30 AM)46% (Apr 16, 11:00 AM)29.77 "Hg (Apr 13, 2:00 PM)
Average69 °F70%30.10 "Hg
* Reported Apr 13 1:30 PM — Apr 28 1:30 PM, Kingston, Weather by CustomWeather, © 2015

Note: Actual official high and low records may vary slightly from our data, if they occured in-between our weather recording intervals... More about our weather records

Advertising

Kingston weather history for previous 24 hours

 ConditionsComfort  
Time TempWeatherWind HumidityBarometerVisibility
1:30 PM
Tue, Apr 28
72 °FPassing clouds.10 mph61%30.01 "HgN/A
1:00 PM72 °FPassing clouds.14 mph61%30.01 "HgN/A
12:30 PM72 °FPassing clouds.14 mph65%30.01 "HgN/A
12:00 PM72 °FPassing clouds.15 mph65%30.04 "HgN/A
11:30 AM72 °FScattered clouds.14 mph57%30.04 "HgN/A
11:00 AM72 °FScattered clouds.13 mph61%30.04 "HgN/A
10:30 AM72 °FPassing clouds.15 mph57%30.04 "HgN/A
10:00 AM72 °FPassing clouds.13 mph57%30.04 "HgN/A
9:30 AM72 °FPassing clouds.12 mph57%30.04 "HgN/A
8:30 AM70 °FPassing clouds.8 mph57%30.01 "HgN/A
8:00 AM70 °FPassing clouds.9 mph57%30.01 "HgN/A
7:30 AM68 °FScattered clouds.10 mph60%29.98 "HgN/A
7:00 AM68 °FScattered showers. Scattered clouds.10 mph60%29.98 "HgN/A
6:30 AM68 °FPartly sunny.12 mph69%29.95 "HgN/A
6:00 AM68 °FClear.14 mph64%29.95 "HgN/A
5:30 AM68 °FClear.12 mph64%29.92 "HgN/A
5:00 AM68 °FClear.15 mph64%29.92 "HgN/A
4:30 AM68 °FPassing clouds.13 mph69%29.92 "HgN/A
4:00 AM68 °FPassing clouds.16 mph69%29.92 "HgN/A
3:30 AM70 °FPassing clouds.14 mph69%29.92 "HgN/A
3:00 AM70 °FClear.14 mph64%29.92 "HgN/A
2:30 AM70 °FPassing clouds.15 mph64%29.92 "HgN/A
2:00 AM68 °FPassing clouds.14 mph73%29.92 "HgN/A
1:30 AM70 °FPassing clouds.14 mph69%29.92 "HgN/A
1:00 AM70 °FPassing clouds.16 mph69%29.92 "HgN/A
12:30 AM70 °FClear.15 mph69%29.92 "HgN/A
12:00 AM70 °FPassing clouds.16 mph64%29.92 "HgN/A
11:30 PM
Mon, Apr 27
70 °FPassing clouds.16 mph69%29.89 "HgN/A
10:30 PM70 °FPassing clouds.16 mph73%29.89 "HgN/A
10:00 PM70 °FPassing clouds.16 mph73%29.89 "HgN/A
9:30 PM70 °FPassing clouds.16 mph73%29.89 "HgN/A
8:30 PM72 °FPassing clouds.17 mph73%29.86 "HgN/A
8:00 PM70 °FPassing clouds.16 mph78%29.86 "HgN/A
7:30 PM72 °FPassing clouds.18 mph73%29.86 "HgN/A
7:00 PM72 °FPartly cloudy.18 mph69%29.83 "HgN/A
6:30 PM72 °FMostly cloudy.18 mph69%29.83 "HgN/A
6:00 PM72 °FPassing clouds.20 mph69%29.83 "HgN/A
5:30 PM72 °FPassing clouds.20 mph65%29.83 "HgN/A
5:00 PM72 °FPassing clouds.18 mph65%29.80 "HgN/A
4:30 PM73 °FPassing clouds.21 mph61%29.80 "HgN/A
4:00 PM73 °FPassing clouds.20 mph57%29.80 "HgN/A
3:30 PM73 °FPassing clouds.18 mph57%29.80 "HgN/A
3:00 PM73 °FPassing clouds.20 mph57%29.80 "HgN/A
Weather by CustomWeather, © 2015

See weather overviewHow to use our weather pages